Etusivu
METAR-TAF:

METAR-TAF

Lentoasemat :

Shepherd Bay, Nunavut, Kanada

Leveyspiiri: 68-49N, Pituuspiiri: 093-26W, korkeus merenpinnasta: 51 m

Tämänhetkinen sää

Tämä raportti tehtiin 38 minuuttia sitten, kello 00.00 UTC
Tuuli 13 kn kaakosta
Lämpötila 0°C
Kosteus 86%
Ilmanpaine 1027 hPa

METAR: CYUS 040000Z AUTO 13013KT ////SM //// NCD M00/M02 A3034

Aika: 18:38 (00:38 UTC)


TAF: puuttuu

Säähavainnot ja -ennusteet yli 4000 lentoasemalta (METAR- ja TAF-raportit).

Käytössä olevat sääasemat on merkitty karttaan keltaisilla ja punaisilla pisteillä.

Aseta hiiri pisteen päälle nähdäksesi sääaseman nimen.

Klikkaa sitten nähdäksesi säähavainnot ja -ennusteet.

Kartan vaihtaminen: klikkaa mustalla rastilla varustettuja vihreitä pisteitä, niin voit zoomata sisään; viivalla varustettua vihreää pistettä, niin voit zoomata ulos tai vihreitä nuolia, niin pääset viereisille kartoille.


METAR-TAF: